Location: Dealu Mare
(46.0500°N, 22.8167°E)
Time: 23:41:09
(UTC+00:00)

SMAP - Pass Details

Date: 15 January 2026
Orbit: 682 x 683 km, 98.1° (Epoch: 13 February)

Event Time Altitude Azimuth Distance (km) Brightness Sun altitude
Rises 05:00:57 0° 12° (NNE) 3,057 6.3 -11.2°
Reaches altitude 10° 05:03:12 10° 11° (N) 2,137 5.5 -10.9°
Maximum altitude 05:07:52 80° 286° (WNW) 700 3.0 -10.1°
Drops below altitude 10° 05:12:31 10° 200° (SSW) 2,119 5.6 -9.4°
Sets 05:14:44 0° 199° (SSW) 3,030 6.4 -9.0°
